SCP
0 0 0 0 0 0 -0 -0 0 0 0 0 0 0 0 0 0 -0 -0 -0 -0 -0 -0 -0 -0 -0 -0 -0 -0 -0 -0 0 -0 -0 -0 -0 -0 -0 -0 -0 -0 -0 -0 -0 -0 -0 -0 -0 -0
0 0 0 0 0 -0 -0 -0 0 0 0 -0 -0 0 0 -0 -0 -0 -0 -0 -0 -0 -0 -0 -0 -0 -0 -0 -0 -0 -0 -0 -0 -0 -0 -0 -0 -0 -0 -0 -0 -0 0 0 0 -0 -0 -0 -0
0 0 0 0 0 -0 0 -0 0 0 -0 0 -0 0 -0 0 -0 -0 -0 -0 -0 -0 -0 -0 -0 -0 -0 -0 -0 -0 -0 -0 -0 -0 -0 -0 -0 0 0 0 -0 0 -0 -0 -0 -0 -0 -0 -0
0 0 0 0 0 0 0 0 0 0 0 0 -0 -0 -0 -0 0 -0 -0 -0 -0 -0 0 -0 -0 -0 -0 -0 -0 -0 -0 -0 -0 -0 -0 -0 -0 -0 -0 -0 0 0 0 -0 -0 -0 -0 -0 -0
0 0 0 0 -0 0 0 0 0 0 0 0 0 0 0 0 -0 -0 -0 -0 -0 -0 0 0 -0 -0 -0 -0 -0 -0 -0 -0 -0 -0 -0 -0 -0 0 -0 -0 0 0 0 0 0 0 0 -0 -0
0 0 0 0 0 -0 0 -0 0 0 0 0 0 0 0 -0 -0 -0 -0 -0 -0 -0 0 0 -0 -0 -0 -0 -0 -0 -0 -0 -0 -0 -0 0 -0 -0 0 0 0 0 0 0 0 0 0 0 -0
0 0 0 0 0 0 0 0 0 0 0 0 -0 0 0 -0 -0 -0 -0 -0 -0 -0 -0 0 0 -0 -0 -0 -0 -0 -0 -0 -0 -0 -0 -0 -0 -0 0 0 0 0 0 -0 -0 0 -0 0 -0
0 0 0 -0 0 0 0 -0 0 0 0 -0 -0 0 -0 -0 -0 -0 -0 -0 -0 -0 -0 -0 0 0 -0 0 -0 -0 -0 -0 -0 -0 -0 -0 -0 -0 -0 0 0 0 -0 -0 -0 -0 -0 -0 0
0 -0 -0 0 0 0 0 -0 0 0 0 0 -0 -0 -0 -0 -0 -0 -0 -0 -0 0 -0 -0 -0 0 0 0 -0 -0 -0 -0 -0 -0 -0 -0 -0 -0 0 -0 0 -0 -0 -0 -0 -0 -0 -0 0
-0 -0 0 -0 0 0 -0 -0 0 0 0 0 0 -0 -0 -0 -0 -0 -0 -0 -0 0 0 -0 -0 -0 0 0 0 0 0 0 0 0 -0 -0 0 -0 0 0 -0 0 -0 -0 0 0 -0 -0 0
-0 0 0 0 0 -0 -0 -0 0 0 0 -0 -0 -0 -0 -0 -0 -0 -0 -0 -0 -0 0 -0 -0 -0 -0 0 0 -0 0 0 0 0 0 -0 -0 0 0 0 -0 -0 -0 -0 -0 -0 0 -0 -0
-0 -0 0 0 -0 0 0 0 0 0 0 -0 -0 -0 -0 -0 -0 -0 -0 -0 -0 -0 -0 0 -0 -0 -0 0 0 -0 0 0 -0 0 0 0 0 0 -0 0 0 0 -0 -0 -0 -0 0 0 0
-0 0 -0 0 -0 -0 0 0 0 0 -0 -0 -0 -0 -0 -0 -0 -0 -0 -0 -0 -0 -0 -0 -0 -0 -0 0 0 0 -0 0 -0 0 0 0 0 0 0 0 0 0 0 0 -0 -0 -0 -0 0
0 0 0 0 0 0 0 0 0 0 -0 -0 -0 -0 -0 -0 -0 0 0 -0 -0 -0 -0 -0 -0 -0 -0 0 -0 0 0 0 0 -0 0 0 0 0 0 0 0 0 0 0 0 -0 -0 0 0
0 -0 0 0 -0 -0 0 0 0 0 -0 -0 -0 0 -0 0 0 0 0 0 -0 -0 -0 -0 -0 -0 -0 -0 -0 0 0 0 0 0 0 0 0 0 0 0 0 0 0 0 0 0 0 -0 0
0 0 0 0 0 0 0 0 0 -0 -0 -0 -0 -0 -0 0 0 0 0 0 0 -0 -0 -0 -0 -0 -0 -0 -0 0 0 0 0 0 0 0 0 0 0 0 0 0 0 0 0 0 0 0 0
0 0 0 0 -0 -0 -0 0 -0 -0 -0 -0 -0 -0 -0 -0 0 0 0 0 -0 -0 -0 -0 -0 -0 -0 -0 0 0 -0 0 0 0 0 0 0 0 0 0 0 0 0 0 0 0 0 0 0
0 0 0 0 -0 -0 -0 -0 -0 0 0 0 0 0 -0 -0 -0 -0 0 0 -0 -0 -0 -0 -0 -0 -0 0 0 0 0 0 0 0 0 0 0 0 0 0 0 0 0 0 0 0 0 0 0
0 0 0 0 0 0 0 0 -0 0 0 0 0 0 -0 0 -0 -0 0 0 0 -0 -0 -0 -0 0 0 0 0 0 0 0 0 0 0 0 0 0 0 0 0 0 0 0 0 0 0 0 0
0 0 0 0 0 0 0 0 0 0 0 0 0 0 0 0 0 -0 -0 0 0 -0 -0 -0 -0 -0 0 0 0 0 0 0 0 0 0 0 0 0 0 0 0 0 0 0 0 0 0 0 0
0 0 0 0 0 0 0 0 0 0 0 0 -0 0 0 0 -0 0 -0 -0 0 0 -0 -0 -0 -0 -0 0 0 0 0 0 0 0 0 0 0 0 0 1 0 0 0 0 0 0 0 0 0
0 0 0 0 -0 -0 0 0 0 0 0 0 0 0 0 -0 0 -0 -0 0 -0 -0 -0 -0 -0 0 0 0 0 0 0 0 0 0 0 0 0 0 0 0 0 0 0 0 0 0 0 0 0
0 0 0 0 0 0 0 0 0 0 0 0 0 0 0 0 0 0 -0 0 0 0 -0 -0 0 0 0 0 0 0 0 0 0 0 0 0 0 0 0 0 0 0 -0 0 0 0 0 0 0
0 0 0 0 0 0 0 0 0 0 0 0 0 0 0 -0 0 0 0 0 0 0 0 0 0 0 0 0 0 0 0 1 1 1 1 0 0 0 0 0 0 -0 0 0 0 0 0 0 0
0 0 0 0 0 0 0 0 0 0 -0 -0 -0 0 0 0 0 0 0 0 0 0 0 1 1 0 1 1 1 1 1 1 1 1 1 0 0 0 0 0 0 -0 0 0 0 0 0 0 0
0 0 0 0 0 0 0 0 -0 0 -0 -0 0 0 1 1 1 1 1 1 1 0 0 0 3 2 1 2 2 2 2 2 1 1 1 1 1 0 0 0 0 0 0 0 0 0 0 0 0
0 0 0 0 0 0 0 0 0 0 -0 -0 0 0 0 0 0 0 0 0 0 1 1 0 0 1 4 5 4 4 3 2 1 0 0 0 0 0 0 0 0 0 0 0 0 0 0 0 0
0 0 0 0 0 0 0 0 0 0 0 0 0 0 0 0 0 -0 -0 -0 -0 0 0 1 0 2 3 5 6 3 1 0 0 0 0 0 0 0 0 0 0 0 0 0 0 0 0 0 0
0 0 0 0 0 0 0 0 0 0 -0 -0 -0 -0 0 -0 -0 -0 -0 -0 -0 -0 0 0 0 0 0 0 0 0 0 0 0 0 0 0 0 0 0 0 0 0 0 0 0 0 0 0 0
0 0 0 0 0 0 0 0 0 0 0 -0 0 0 0 -0 0 0 0 0 0 0 0 0 0 0 0 0 0 0 -0 -0 0 0 0 0 0 0 0 0 0 0 0 0 0 0 0 0 0
Wind_Speed_500mb
8 7 7 4 7 5 7 4 6 9 10 29 33 25 10 11 6 7 36 49 47 40 39 37 32 28 26 29 29 27 24 23 25 25 23 24 24 22 22 22 19 15 14 19 22 18 23 22 22
4 6 9 1 7 8 9 7 12 24 37 54 42 31 18 6 15 32 61 40 45 41 40 39 33 29 29 29 28 25 23 23 24 24 25 24 23 23 21 20 21 20 18 18 19 20 23 23 22
3 5 2 4 7 5 4 11 11 28 39 20 15 28 13 16 39 56 48 51 47 43 40 40 33 29 30 28 26 24 21 22 23 25 24 24 26 23 21 17 18 21 22 21 22 22 23 23 23
1 2 2 6 10 14 2 12 30 23 28 33 44 14 23 19 44 42 50 42 45 44 42 38 31 29 29 26 25 22 20 21 22 25 26 30 30 28 25 22 17 20 22 22 23 23 24 23 24
6 1 7 5 10 11 12 28 28 15 13 36 46 16 9 28 35 42 35 36 42 44 42 38 32 29 28 25 23 21 18 20 23 26 32 35 37 30 25 24 22 20 21 22 23 24 22 21 22
2 3 7 4 8 10 14 14 29 29 33 34 33 25 9 46 41 38 23 33 38 43 44 39 33 30 28 25 23 20 19 21 25 30 34 36 40 38 32 26 23 24 22 21 22 24 23 21 23
6 6 5 1 11 13 6 12 31 41 36 17 57 17 35 53 39 33 28 38 36 38 42 39 34 31 29 27 24 22 20 23 26 32 32 33 38 44 40 32 27 22 26 26 26 27 27 25 26
7 5 4 2 7 13 14 11 50 54 22 52 60 18 47 62 44 29 35 34 28 22 37 38 34 32 30 28 25 22 22 22 25 30 31 26 30 36 36 39 36 30 26 29 29 29 29 28 28
14 3 5 8 8 11 17 9 36 32 60 23 37 51 64 63 53 46 48 43 34 32 37 38 35 32 30 27 24 23 22 22 26 29 25 20 19 22 24 27 35 38 35 36 34 34 33 28 22
11 6 15 20 19 13 34 24 42 20 37 9 26 42 73 66 66 63 59 52 40 35 31 36 35 32 30 26 22 19 19 21 26 26 22 17 9 17 16 18 20 27 26 22 24 20 21 19 15
8 14 7 36 47 59 37 33 23 41 4 39 62 77 75 69 70 64 61 51 41 29 27 31 34 31 29 26 20 14 17 18 26 25 21 15 9 2 8 9 13 13 16 18 17 12 14 13 2
7 24 21 50 62 23 28 53 19 38 25 45 55 80 78 71 61 65 65 57 49 40 29 30 32 31 36 26 19 9 18 21 23 19 18 16 14 11 7 11 15 10 14 15 17 9 12 7 6
11 14 25 50 53 19 32 28 21 24 50 50 58 69 73 68 52 57 60 52 50 47 39 36 37 34 33 30 25 19 21 21 15 17 12 18 14 7 8 6 8 15 15 19 23 14 11 9 9
15 38 40 53 42 11 21 25 26 34 58 61 67 65 71 65 51 54 63 59 60 47 42 40 43 37 33 29 30 25 26 22 18 18 16 20 14 19 16 10 14 15 13 17 18 10 8 10 11
21 18 21 19 13 0 53 9 15 68 68 67 67 63 66 59 54 58 61 60 63 54 47 48 49 44 42 35 39 36 30 32 28 21 22 22 22 23 19 19 22 23 19 13 12 12 12 19 15
9 6 10 15 11 11 16 10 23 80 78 66 72 69 64 61 61 57 60 58 63 62 60 53 56 52 50 52 50 44 34 33 32 26 28 31 31 24 24 24 19 23 19 19 17 17 12 19 21
11 7 8 19 6 4 12 4 29 70 62 56 64 73 70 63 65 61 62 65 63 67 66 67 67 62 58 56 55 51 48 44 36 36 38 41 33 27 22 23 26 21 28 26 23 21 22 18 24
10 6 8 12 18 14 6 23 33 49 61 56 53 55 69 68 73 72 69 72 70 72 70 69 71 70 68 64 61 70 65 59 60 54 45 38 35 33 28 23 18 28 28 30 31 30 27 24 22
8 6 15 24 21 6 24 16 42 44 45 45 58 54 75 78 63 77 76 76 77 80 79 77 77 72 70 68 67 71 82 72 60 56 48 44 40 38 38 29 35 34 32 33 32 31 35 32 30
10 11 24 21 18 13 19 13 30 34 46 66 71 70 70 80 82 79 86 87 88 89 89 85 83 78 76 72 66 68 66 70 65 56 52 51 49 45 42 39 37 34 41 39 41 42 43 34 31
20 13 15 21 8 6 5 9 10 16 19 35 40 45 61 84 96 93 92 100 99 98 96 94 92 87 83 76 66 66 55 59 64 65 59 62 58 50 45 44 42 43 42 45 48 51 49 42 30
16 26 31 14 9 7 7 7 10 18 33 25 52 58 67 86 96 103 103 102 110 111 102 99 97 94 90 80 73 71 72 68 67 65 56 50 58 58 47 46 46 48 50 49 55 51 52 41 33
19 11 4 1 4 6 10 8 15 14 22 36 52 78 95 90 101 114 116 111 111 111 110 103 101 98 94 87 79 72 75 68 60 60 56 51 55 53 61 53 54 56 58 54 56 46 48 41 32
7 9 15 10 7 6 8 9 12 11 18 14 55 82 77 95 98 113 118 113 113 110 113 107 108 107 100 96 87 79 76 71 64 60 54 52 53 51 60 50 58 54 60 55 54 52 44 41 41
16 14 8 9 8 10 9 6 15 29 33 33 32 57 83 55 10 15 37 54 76 89 112 112 115 115 109 101 98 90 76 72 63 57 51 41 34 41 39 48 47 48 45 51 53 51 43 49 38
6 15 11 8 5 6 10 6 7 21 56 67 54 61 88 79 70 60 37 6 23 27 50 83 116 115 116 110 107 91 77 80 69 62 55 38 64 50 37 28 23 37 54 46 39 23 38 40 14
6 4 13 12 3 7 6 13 5 37 45 59 64 72 67 82 75 71 68 64 44 25 7 28 74 112 117 114 106 91 84 73 67 60 55 47 57 45 33 35 34 51 49 37 32 39 23 26 22
16 8 5 7 4 4 8 12 8 24 25 35 38 46 54 59 60 59 57 45 34 37 28 29 56 70 68 69 67 65 59 53 51 48 45 46 36 29 26 25 31 32 36 17 2 12 21 24 20
3 3 10 10 10 9 4 6 13 11 11 21 20 30 36 40 48 51 49 40 33 36 40 11 39 37 38 43 41 40 23 20 27 18 14 16 14 13 17 17 1 31 38 37 34 20 19 15 13
7 6 11 10 6 3 8 3 15 4 18 30 38 41 35 40 47 43 38 33 38 30 29 3 20 23 33 22 19 16 18 47 27 18 5 5 9 6 3 14 28 24 19 23 20 14 17 12 5
Wind_Direction_500mb
322 313 342 289 43 75 282 255 137 86 55 75 90 117 139 65 122 184 149 163 169 167 161 154 151 145 136 129 122 116 106 92 87 84 81 75 71 70 71 71 78 94 96 124 122 118 123 123 120
324 276 316 353 73 28 321 279 108 106 125 99 83 91 56 84 103 144 154 165 168 163 159 153 150 144 133 127 118 115 105 92 90 85 78 74 69 70 70 70 75 81 92 113 121 116 117 118 118
323 257 239 169 114 163 307 293 110 122 131 116 104 76 76 106 119 144 157 157 161 156 157 154 148 138 133 128 124 115 106 97 93 88 83 75 71 66 64 69 77 83 92 105 115 118 114 108 110
199 244 325 68 278 277 222 293 131 104 86 85 112 70 96 140 148 154 150 160 162 155 158 150 146 141 137 133 129 124 111 98 94 90 83 76 69 66 65 68 80 86 93 101 110 115 114 112 112
224 75 55 13 288 279 304 326 137 108 79 112 113 122 69 149 158 152 148 157 164 159 157 154 152 145 142 145 138 126 114 108 102 96 87 79 70 64 66 71 71 84 92 98 105 111 109 109 117
18 78 51 296 277 316 293 266 125 106 127 110 96 106 107 150 152 146 147 159 167 164 160 160 154 151 153 155 145 136 129 118 110 104 98 88 74 68 67 69 74 75 88 98 107 108 112 114 128
113 76 227 245 317 323 293 148 127 136 140 146 136 118 146 154 153 145 142 143 152 166 166 162 159 159 163 161 154 149 134 126 120 113 106 86 81 74 75 71 69 80 85 95 106 117 123 122 122
205 101 291 104 359 286 312 236 156 152 153 141 141 153 165 163 161 162 157 150 150 164 176 169 167 166 172 164 162 155 143 132 128 120 109 96 90 87 86 77 66 84 89 95 105 116 121 120 124
241 57 185 234 155 246 264 290 155 157 142 164 187 165 166 159 173 175 171 168 167 166 178 178 177 174 173 169 168 164 151 141 133 125 115 116 93 86 88 90 84 90 92 94 97 106 113 113 112
153 147 222 194 202 230 229 232 142 126 159 107 145 154 157 164 176 176 179 176 173 159 179 191 185 183 178 171 173 169 163 152 148 134 119 113 96 97 98 100 101 106 98 95 106 110 116 117 121
200 216 218 263 252 258 223 207 138 128 186 166 150 154 162 168 176 180 186 188 189 177 170 189 196 194 186 174 169 179 182 170 169 155 141 160 175 83 101 118 135 128 122 129 120 109 115 133 141
262 266 274 282 289 198 174 183 147 165 182 165 161 158 168 174 180 187 192 194 192 189 193 182 190 193 191 175 178 178 185 179 168 181 171 174 177 187 158 118 122 159 179 161 162 134 173 149 70
208 278 294 297 293 242 159 144 157 153 151 156 157 164 172 178 184 193 202 203 203 200 198 200 197 198 193 200 192 190 186 187 173 184 190 172 172 220 220 195 198 177 194 187 180 151 162 147 117
284 293 297 306 285 220 122 135 111 136 151 157 164 172 177 184 188 194 197 207 203 207 206 203 206 216 211 213 204 206 206 207 194 202 205 204 204 237 253 229 214 198 218 202 189 185 165 192 210
293 320 320 287 317 200 120 46 127 155 160 163 174 172 180 190 195 203 203 207 208 210 208 206 209 218 220 215 213 213 217 215 211 213 210 214 225 235 241 240 239 223 225 228 221 205 251 222 202
332 32 343 293 330 291 124 211 173 164 162 170 177 178 183 196 202 207 206 208 209 212 213 213 214 220 218 222 224 225 223 215 215 219 224 224 235 252 250 241 217 221 226 226 239 237 247 211 227
2 247 280 312 252 289 95 176 202 173 165 171 182 186 185 195 207 211 213 213 214 217 220 218 219 221 218 226 232 222 223 229 219 221 233 231 239 250 249 241 217 225 225 225 236 245 244 239 241
230 238 283 253 289 21 348 210 175 185 172 176 185 193 191 199 209 212 212 214 218 222 227 227 222 223 226 227 230 229 230 229 229 231 231 231 236 244 253 243 234 241 228 237 235 243 247 249 258
239 230 266 283 287 290 271 242 169 181 177 174 185 196 199 207 218 216 216 216 219 220 222 225 224 226 226 226 225 224 230 231 227 224 228 234 237 243 247 248 241 226 228 235 248 243 249 256 259
271 275 273 285 263 170 283 225 161 177 189 188 193 201 202 215 217 221 219 219 220 221 222 225 228 228 228 230 233 227 228 230 232 228 225 233 238 240 246 253 252 243 234 242 247 252 251 249 260
253 225 256 241 304 253 285 35 152 240 266 225 224 218 221 221 220 223 219 221 221 222 224 226 229 229 227 233 235 230 229 230 228 227 228 230 236 240 245 254 260 256 248 255 255 258 245 252 256
247 228 237 259 54 279 71 272 221 210 227 230 246 232 229 224 225 228 224 220 222 227 226 228 231 232 230 230 229 229 227 224 226 231 231 228 233 239 240 247 253 267 258 249 246 250 251 256 252
229 205 206 245 63 23 343 100 268 146 242 237 239 240 235 223 223 225 228 226 227 229 230 230 230 233 233 232 233 231 228 228 231 233 232 228 234 228 231 233 255 260 266 258 256 256 257 260 261
150 64 43 53 88 37 266 120 289 253 227 223 222 229 234 231 222 225 231 232 229 229 231 231 231 232 234 233 233 234 233 229 230 227 226 233 242 245 248 228 249 254 256 258 259 260 253 250 252
69 56 5 357 12 218 305 58 232 305 290 241 243 220 230 230 98 271 253 249 238 231 232 234 235 233 232 232 233 234 235 237 233 227 228 238 252 258 264 262 245 254 251 254 256 259 284 254 242
153 141 150 194 217 275 344 272 356 337 35 38 33 61 67 74 81 78 78 102 225 238 241 246 242 236 235 233 234 232 233 233 231 228 224 235 252 246 256 253 261 285 270 274 269 246 281 259 247
192 117 193 126 47 69 252 336 111 357 22 27 44 70 75 72 67 68 67 67 70 64 272 289 252 248 241 236 229 226 233 232 230 229 235 241 232 242 224 222 248 290 272 266 273 276 260 222 216
140 167 65 21 175 220 291 83 314 351 16 43 52 56 60 60 55 42 31 20 9 352 344 304 291 245 236 232 225 223 221 229 232 231 241 221 227 228 256 289 289 278 277 275 158 212 160 171 172
6 37 64 120 133 157 115 305 360 317 24 75 91 68 51 45 38 30 25 21 27 22 31 353 239 227 220 212 202 186 138 96 354 295 208 222 208 241 264 287 13 108 91 106 118 121 153 168 179
123 221 148 128 206 133 124 209 340 22 63 63 43 38 37 39 34 31 31 37 64 47 20 14 233 225 254 240 208 323 346 313 264 238 278 338 18 17 248 127 125 113 98 111 122 150 171 192 224
Wind_Speed_850mb
8 7 7 4 7 5 7 4 6 9 10 29 33 25 10 11 6 7 36 49 47 40 39 37 32 28 26 29 29 27 24 23 25 25 23 24 24 22 22 22 19 15 14 19 22 18 23 22 22
4 6 9 1 7 8 9 7 12 24 37 54 42 31 18 6 15 32 61 40 45 41 40 39 33 29 29 29 28 25 23 23 24 24 25 24 23 23 21 20 21 20 18 18 19 20 23 23 22
3 5 2 4 7 5 4 11 11 28 39 20 15 28 13 16 39 56 48 51 47 43 40 40 33 29 30 28 26 24 21 22 23 25 24 24 26 23 21 17 18 21 22 21 22 22 23 23 23
1 2 2 6 10 14 2 12 30 23 28 33 44 14 23 19 44 42 50 42 45 44 42 38 31 29 29 26 25 22 20 21 22 25 26 30 30 28 25 22 17 20 22 22 23 23 24 23 24
6 1 7 5 10 11 12 28 28 15 13 36 46 16 9 28 35 42 35 36 42 44 42 38 32 29 28 25 23 21 18 20 23 26 32 35 37 30 25 24 22 20 21 22 23 24 22 21 22
2 3 7 4 8 10 14 14 29 29 33 34 33 25 9 46 41 38 23 33 38 43 44 39 33 30 28 25 23 20 19 21 25 30 34 36 40 38 32 26 23 24 22 21 22 24 23 21 23
6 6 5 1 11 13 6 12 31 41 36 17 57 17 35 53 39 33 28 38 36 38 42 39 34 31 29 27 24 22 20 23 26 32 32 33 38 44 40 32 27 22 26 26 26 27 27 25 26
7 5 4 2 7 13 14 11 50 54 22 52 60 18 47 62 44 29 35 34 28 22 37 38 34 32 30 28 25 22 22 22 25 30 31 26 30 36 36 39 36 30 26 29 29 29 29 28 28
14 3 5 8 8 11 17 9 36 32 60 23 37 51 64 63 53 46 48 43 34 32 37 38 35 32 30 27 24 23 22 22 26 29 25 20 19 22 24 27 35 38 35 36 34 34 33 28 22
11 6 15 20 19 13 34 24 42 20 37 9 26 42 73 66 66 63 59 52 40 35 31 36 35 32 30 26 22 19 19 21 26 26 22 17 9 17 16 18 20 27 26 22 24 20 21 19 15
8 14 7 36 47 59 37 33 23 41 4 39 62 77 75 69 70 64 61 51 41 29 27 31 34 31 29 26 20 14 17 18 26 25 21 15 9 2 8 9 13 13 16 18 17 12 14 13 2
7 24 21 50 62 23 28 53 19 38 25 45 55 80 78 71 61 65 65 57 49 40 29 30 32 31 36 26 19 9 18 21 23 19 18 16 14 11 7 11 15 10 14 15 17 9 12 7 6
11 14 25 50 53 19 32 28 21 24 50 50 58 69 73 68 52 57 60 52 50 47 39 36 37 34 33 30 25 19 21 21 15 17 12 18 14 7 8 6 8 15 15 19 23 14 11 9 9
15 38 40 53 42 11 21 25 26 34 58 61 67 65 71 65 51 54 63 59 60 47 42 40 43 37 33 29 30 25 26 22 18 18 16 20 14 19 16 10 14 15 13 17 18 10 8 10 11
21 18 21 19 13 0 53 9 15 68 68 67 67 63 66 59 54 58 61 60 63 54 47 48 49 44 42 35 39 36 30 32 28 21 22 22 22 23 19 19 22 23 19 13 12 12 12 19 15
9 6 10 15 11 11 16 10 23 80 78 66 72 69 64 61 61 57 60 58 63 62 60 53 56 52 50 52 50 44 34 33 32 26 28 31 31 24 24 24 19 23 19 19 17 17 12 19 21
11 7 8 19 6 4 12 4 29 70 62 56 64 73 70 63 65 61 62 65 63 67 66 67 67 62 58 56 55 51 48 44 36 36 38 41 33 27 22 23 26 21 28 26 23 21 22 18 24
10 6 8 12 18 14 6 23 33 49 61 56 53 55 69 68 73 72 69 72 70 72 70 69 71 70 68 64 61 70 65 59 60 54 45 38 35 33 28 23 18 28 28 30 31 30 27 24 22
8 6 15 24 21 6 24 16 42 44 45 45 58 54 75 78 63 77 76 76 77 80 79 77 77 72 70 68 67 71 82 72 60 56 48 44 40 38 38 29 35 34 32 33 32 31 35 32 30
10 11 24 21 18 13 19 13 30 34 46 66 71 70 70 80 82 79 86 87 88 89 89 85 83 78 76 72 66 68 66 70 65 56 52 51 49 45 42 39 37 34 41 39 41 42 43 34 31
20 13 15 21 8 6 5 9 10 16 19 35 40 45 61 84 96 93 92 100 99 98 96 94 92 87 83 76 66 66 55 59 64 65 59 62 58 50 45 44 42 43 42 45 48 51 49 42 30
16 26 31 14 9 7 7 7 10 18 33 25 52 58 67 86 96 103 103 102 110 111 102 99 97 94 90 80 73 71 72 68 67 65 56 50 58 58 47 46 46 48 50 49 55 51 52 41 33
19 11 4 1 4 6 10 8 15 14 22 36 52 78 95 90 101 114 116 111 111 111 110 103 101 98 94 87 79 72 75 68 60 60 56 51 55 53 61 53 54 56 58 54 56 46 48 41 32
7 9 15 10 7 6 8 9 12 11 18 14 55 82 77 95 98 113 118 113 113 110 113 107 108 107 100 96 87 79 76 71 64 60 54 52 53 51 60 50 58 54 60 55 54 52 44 41 41
16 14 8 9 8 10 9 6 15 29 33 33 32 57 83 55 10 15 37 54 76 89 112 112 115 115 109 101 98 90 76 72 63 57 51 41 34 41 39 48 47 48 45 51 53 51 43 49 38
6 15 11 8 5 6 10 6 7 21 56 67 54 61 88 79 70 60 37 6 23 27 50 83 116 115 116 110 107 91 77 80 69 62 55 38 64 50 37 28 23 37 54 46 39 23 38 40 14
6 4 13 12 3 7 6 13 5 37 45 59 64 72 67 82 75 71 68 64 44 25 7 28 74 112 117 114 106 91 84 73 67 60 55 47 57 45 33 35 34 51 49 37 32 39 23 26 22
16 8 5 7 4 4 8 12 8 24 25 35 38 46 54 59 60 59 57 45 34 37 28 29 56 70 68 69 67 65 59 53 51 48 45 46 36 29 26 25 31 32 36 17 2 12 21 24 20
3 3 10 10 10 9 4 6 13 11 11 21 20 30 36 40 48 51 49 40 33 36 40 11 39 37 38 43 41 40 23 20 27 18 14 16 14 13 17 17 1 31 38 37 34 20 19 15 13
7 6 11 10 6 3 8 3 15 4 18 30 38 41 35 40 47 43 38 33 38 30 29 3 20 23 33 22 19 16 18 47 27 18 5 5 9 6 3 14 28 24 19 23 20 14 17 12 5
Wind_Direction_850mb
322 313 342 289 43 75 282 255 137 86 55 75 90 117 139 65 122 184 149 163 169 167 161 154 151 145 136 129 122 116 106 92 87 84 81 75 71 70 71 71 78 94 96 124 122 118 123 123 120
324 276 316 353 73 28 321 279 108 106 125 99 83 91 56 84 103 144 154 165 168 163 159 153 150 144 133 127 118 115 105 92 90 85 78 74 69 70 70 70 75 81 92 113 121 116 117 118 118
323 257 239 169 114 163 307 293 110 122 131 116 104 76 76 106 119 144 157 157 161 156 157 154 148 138 133 128 124 115 106 97 93 88 83 75 71 66 64 69 77 83 92 105 115 118 114 108 110
199 244 325 68 278 277 222 293 131 104 86 85 112 70 96 140 148 154 150 160 162 155 158 150 146 141 137 133 129 124 111 98 94 90 83 76 69 66 65 68 80 86 93 101 110 115 114 112 112
224 75 55 13 288 279 304 326 137 108 79 112 113 122 69 149 158 152 148 157 164 159 157 154 152 145 142 145 138 126 114 108 102 96 87 79 70 64 66 71 71 84 92 98 105 111 109 109 117
18 78 51 296 277 316 293 266 125 106 127 110 96 106 107 150 152 146 147 159 167 164 160 160 154 151 153 155 145 136 129 118 110 104 98 88 74 68 67 69 74 75 88 98 107 108 112 114 128
113 76 227 245 317 323 293 148 127 136 140 146 136 118 146 154 153 145 142 143 152 166 166 162 159 159 163 161 154 149 134 126 120 113 106 86 81 74 75 71 69 80 85 95 106 117 123 122 122
205 101 291 104 359 286 312 236 156 152 153 141 141 153 165 163 161 162 157 150 150 164 176 169 167 166 172 164 162 155 143 132 128 120 109 96 90 87 86 77 66 84 89 95 105 116 121 120 124
241 57 185 234 155 246 264 290 155 157 142 164 187 165 166 159 173 175 171 168 167 166 178 178 177 174 173 169 168 164 151 141 133 125 115 116 93 86 88 90 84 90 92 94 97 106 113 113 112
153 147 222 194 202 230 229 232 142 126 159 107 145 154 157 164 176 176 179 176 173 159 179 191 185 183 178 171 173 169 163 152 148 134 119 113 96 97 98 100 101 106 98 95 106 110 116 117 121
200 216 218 263 252 258 223 207 138 128 186 166 150 154 162 168 176 180 186 188 189 177 170 189 196 194 186 174 169 179 182 170 169 155 141 160 175 83 101 118 135 128 122 129 120 109 115 133 141
262 266 274 282 289 198 174 183 147 165 182 165 161 158 168 174 180 187 192 194 192 189 193 182 190 193 191 175 178 178 185 179 168 181 171 174 177 187 158 118 122 159 179 161 162 134 173 149 70
208 278 294 297 293 242 159 144 157 153 151 156 157 164 172 178 184 193 202 203 203 200 198 200 197 198 193 200 192 190 186 187 173 184 190 172 172 220 220 195 198 177 194 187 180 151 162 147 117
284 293 297 306 285 220 122 135 111 136 151 157 164 172 177 184 188 194 197 207 203 207 206 203 206 216 211 213 204 206 206 207 194 202 205 204 204 237 253 229 214 198 218 202 189 185 165 192 210
293 320 320 287 317 200 120 46 127 155 160 163 174 172 180 190 195 203 203 207 208 210 208 206 209 218 220 215 213 213 217 215 211 213 210 214 225 235 241 240 239 223 225 228 221 205 251 222 202
332 32 343 293 330 291 124 211 173 164 162 170 177 178 183 196 202 207 206 208 209 212 213 213 214 220 218 222 224 225 223 215 215 219 224 224 235 252 250 241 217 221 226 226 239 237 247 211 227
2 247 280 312 252 289 95 176 202 173 165 171 182 186 185 195 207 211 213 213 214 217 220 218 219 221 218 226 232 222 223 229 219 221 233 231 239 250 249 241 217 225 225 225 236 245 244 239 241
230 238 283 253 289 21 348 210 175 185 172 176 185 193 191 199 209 212 212 214 218 222 227 227 222 223 226 227 230 229 230 229 229 231 231 231 236 244 253 243 234 241 228 237 235 243 247 249 258
239 230 266 283 287 290 271 242 169 181 177 174 185 196 199 207 218 216 216 216 219 220 222 225 224 226 226 226 225 224 230 231 227 224 228 234 237 243 247 248 241 226 228 235 248 243 249 256 259
271 275 273 285 263 170 283 225 161 177 189 188 193 201 202 215 217 221 219 219 220 221 222 225 228 228 228 230 233 227 228 230 232 228 225 233 238 240 246 253 252 243 234 242 247 252 251 249 260
253 225 256 241 304 253 285 35 152 240 266 225 224 218 221 221 220 223 219 221 221 222 224 226 229 229 227 233 235 230 229 230 228 227 228 230 236 240 245 254 260 256 248 255 255 258 245 252 256
247 228 237 259 54 279 71 272 221 210 227 230 246 232 229 224 225 228 224 220 222 227 226 228 231 232 230 230 229 229 227 224 226 231 231 228 233 239 240 247 253 267 258 249 246 250 251 256 252
229 205 206 245 63 23 343 100 268 146 242 237 239 240 235 223 223 225 228 226 227 229 230 230 230 233 233 232 233 231 228 228 231 233 232 228 234 228 231 233 255 260 266 258 256 256 257 260 261
150 64 43 53 88 37 266 120 289 253 227 223 222 229 234 231 222 225 231 232 229 229 231 231 231 232 234 233 233 234 233 229 230 227 226 233 242 245 248 228 249 254 256 258 259 260 253 250 252
69 56 5 357 12 218 305 58 232 305 290 241 243 220 230 230 98 271 253 249 238 231 232 234 235 233 232 232 233 234 235 237 233 227 228 238 252 258 264 262 245 254 251 254 256 259 284 254 242
153 141 150 194 217 275 344 272 356 337 35 38 33 61 67 74 81 78 78 102 225 238 241 246 242 236 235 233 234 232 233 233 231 228 224 235 252 246 256 253 261 285 270 274 269 246 281 259 247
192 117 193 126 47 69 252 336 111 357 22 27 44 70 75 72 67 68 67 67 70 64 272 289 252 248 241 236 229 226 233 232 230 229 235 241 232 242 224 222 248 290 272 266 273 276 260 222 216
140 167 65 21 175 220 291 83 314 351 16 43 52 56 60 60 55 42 31 20 9 352 344 304 291 245 236 232 225 223 221 229 232 231 241 221 227 228 256 289 289 278 277 275 158 212 160 171 172
6 37 64 120 133 157 115 305 360 317 24 75 91 68 51 45 38 30 25 21 27 22 31 353 239 227 220 212 202 186 138 96 354 295 208 222 208 241 264 287 13 108 91 106 118 121 153 168 179
123 221 148 128 206 133 124 209 340 22 63 63 43 38 37 39 34 31 31 37 64 47 20 14 233 225 254 240 208 323 346 313 264 238 278 338 18 17 248 127 125 113 98 111 122 150 171 192 224